CW3071 Weather Reports


time (UTC)temp
F
wind
direction
speed
knots
gust
knots
rain 1hr
in
rain 24hr
in
rain mn
in
humidity
%
barometer
mb
20260506193052 47 217 4.3 16.5 0.00 0.00 0.00 35 1016.8
20260506191548 47 249 2.6 12.2 0.00 0.00 0.00 37 1016.9
20260506190054 46 253 5.2 12.2 0.00 0.00 0.00 35 1017.3
20260506184552 44 320 3.5 13.0 0.00 0.00 0.00 37 1017.6
20260506183058 44 250 5.2 13.9 0.00 0.00 0.00 37 1017.9
20260506181548 43 257 4.3 11.3 0.00 0.00 0.00 40 1018.1
20260506180057 42 300 4.3 10.4 0.00 0.00 0.00 38 1018.1
20260506174557 42 350 2.6 10.4 0.00 0.00 0.00 41 1018.2
20260506173118 41 350 2.6 8.7 0.00 0.00 0.00 38 1018.3
20260506171550 41 350 3.5 8.7 0.00 0.00 0.00 42 1018.4
20260506170052 40 350 0.9 5.2 0.00 0.00 0.00 47 1018.4
20260506164548 39 296 3.5 8.7 0.00 0.00 0.00 47 1018.6
20260506163053 39 350 1.7 9.6 0.00 0.00 0.00 49 1018.7
20260506161553 39 301 1.7 5.2 0.00 0.00 0.00 53 1018.8
20260506160054 37 242 2.6 5.2 0.00 0.00 0.00 54 1018.9
20260506154554 37 297 1.7 6.1 0.00 0.00 0.00 58 1019.1
20260506153050 36 260 2.6 4.3 0.00 0.00 0.00 61 1019.1
20260506151550 35 218 2.6 6.1 0.00 0.00 0.00 64 1019.2
20260506150101 36 217 1.7 4.3 0.00 0.00 0.00 66 1019.1
20260506144604 35 182 0.9 2.6 0.00 0.00 0.00 74 1019.2
20260506143054 33 182 0.9 2.6 0.00 0.00 0.00 82 1019.3
20260506141554 31 152 0.9 4.3 0.00 0.00 0.00 86 1019.4
20260506140113 29 350 0.9 3.5 0.00 0.00 0.00 86 1019.6
20260506134549 28 0 0.9 3.5 0.00 0.00 0.00 87 1019.5
20260506133121 28 350 0.9 4.3 0.00 0.00 0.00 89 1019.5
20260506131555 27 350 0.9 3.5 0.00 0.00 0.00 89 1019.4
20260506130133 27 0 1.7 4.3 0.00 0.00 0.00 92 1019.3
20260506124553 27 350 1.7 3.5 0.00 0.00 0.00 95 1019.1
20260506123049 27 0 0.0 0.0 0.00 0.00 0.00 95 1019.0
20260506121554 27 0 0.0 0.9 0.00 0.00 0.00 96 1019.0
20260506120050 27 0 0.0 1.7 0.00 0.00 0.00 95 1018.9
20260506114551 27 0 0.0 1.7 0.00 0.00 0.00 95 1018.8
20260506113054 28 0 0.0 0.0 0.00 0.00 0.00 95 1018.7
20260506111546 28 0 0.0 0.0 0.00 0.00 0.00 95 1018.7
20260506110053 28 0 0.0 0.0 0.00 0.00 0.00 95 1018.6
20260506104559 28 0 0.0 1.7 0.00 0.00 0.00 95 1018.6
20260506103049 28 0 0.0 1.7 0.00 0.00 0.00 95 1018.7
20260506101552 28 350 0.0 2.6 0.00 0.00 0.00 95 1018.7
20260506100104 28 0 0.0 1.7 0.00 0.00 0.00 95 1018.5
20260506094601 28 0 0.0 2.6 0.00 0.00 0.00 94 1018.5
20260506093051 28 0 0.0 2.6 0.00 0.00 0.00 94 1018.4
20260506091548 29 350 0.9 2.6 0.00 0.00 0.00 94 1018.4
20260506090049 29 0 0.0 0.0 0.00 0.00 0.00 94 1018.4
20260506084559 29 0 0.0 0.0 0.00 0.00 0.00 94 1018.4
20260506083100 29 0 0.0 0.0 0.00 0.00 0.00 93 1018.4
20260506081607 29 0 0.0 3.5 0.00 0.00 0.00 94 1018.4
20260506073052 29 350 1.7 3.5 0.00 0.00 0.00 94 1018.5
20260506071555 29 350 1.7 2.6 0.00 0.00 0.00 94 1018.7
20260506061553 29 350 0.9 2.6 0.00 0.00 0.00 93 1018.5
20260506044553 31 0 0.0 0.0 0.00 0.00 0.00 94 1018.1
20260506043056 31 0 0.0 1.7 0.00 0.00 0.00 94 1018.3
20260506041553 31 350 0.0 1.7 0.00 0.00 0.00 93 1018.4
20260506040055 31 0 0.0 1.7 0.00 0.00 0.00 93 1018.2
20260506034610 31 0 0.0 0.0 0.00 0.00 0.00 94 1018.2
20260506033052 32 0 0.0 0.9 0.00 0.00 0.00 93 1018.1
20260506031552 32 0 0.0 1.7 0.00 0.00 0.00 93 1017.9
20260506030050 32 0 0.0 0.9 0.00 0.00 0.00 93 1017.6
20260506024556 31 0 0.0 0.9 0.00 0.00 0.00 93 1017.3
20260506023101 31 0 0.0 0.9 0.00 0.00 0.00 93 1017.3
20260506021553 31 0 0.0 1.7 0.00 0.00 0.00 92 1017.2
20260506020057 31 0 0.0 2.6 0.00 0.00 0.00 91 1017.1
20260506014550 32 350 2.6 7.8 0.00 0.00 0.00 90 1017.2
20260506013106 33 350 5.2 10.4 0.00 0.00 0.00 86 1017.0
20260506011558 36 350 4.3 7.8 0.00 0.00 0.00 75 1016.8
20260506010108 36 350 4.3 7.8 0.00 0.00 0.00 70 1016.6
20260506004552 36 350 3.5 7.0 0.00 0.00 0.00 69 1016.6
20260506003056 36 350 2.6 8.7 0.00 0.00 0.00 71 1016.4
20260506001555 37 350 7.0 13.9 0.00 0.00 0.00 67 1016.1
20260506000054 38 350 6.1 12.2 0.00 0.00 0.00 61 1016.0
20260505234552 39 350 3.5 8.7 0.00 0.00 0.00 56 1015.5
20260505233104 39 350 2.6 7.8 0.00 0.00 0.00 57 1015.4
20260505231553 38 350 2.6 9.6 0.00 0.00 0.00 64 1015.0
20260505230100 39 350 6.1 11.3 0.00 0.00 0.00 64 1015.1
20260505224552 41 350 4.3 9.6 0.00 0.00 0.00 54 1014.6
20260505223052 40 350 6.1 10.4 0.00 0.00 0.00 59 1014.6
20260505221555 40 350 5.2 12.2 0.00 0.00 0.00 59 1014.9
20260505220055 40 350 5.2 13.9 0.00 0.00 0.00 60 1014.7
20260505214601 40 350 6.1 14.8 0.00 0.00 0.00 53 1014.5
20260505213052 41 350 2.6 8.7 0.00 0.00 0.00 54 1014.6
20260505211549 40 350 6.1 12.2 0.00 0.00 0.00 56 1014.8
20260505210051 40 350 7.8 14.8 0.00 0.00 0.00 52 1014.9
20260505204548 41 44 4.3 12.2 0.00 0.00 0.00 53 1014.8
20260505203047 40 350 7.0 13.9 0.00 0.00 0.00 57 1015.1
20260505201557 40 350 6.1 9.6 0.00 0.00 0.00 54 1015.1
20260505200056 40 350 4.3 10.4 0.00 0.00 0.00 57 1015.2
20260505194553 40 350 3.5 7.8 0.00 0.00 0.00 52 1014.8